Location: Coopersdale
(40.3556°N, 78.9372°W)
Time: 19:55:43
(UTC+00:00)

Transit 4A - Pass Details

Date: 26 January 2021
Orbit: 866 x 978 km, 66.8° (Epoch: 26 February)

Event Time Altitude Azimuth Distance (km) Brightness Sun altitude
Rises 07:59:41 0° 335° (NNW) 3,625 - -51.0°
Reaches altitude 10° 08:02:27 10° 343° (NNW) 2,660 - -50.5°
Maximum altitude 08:08:13 39° 52° (NE) 1,341 - -49.5°
Drops below altitude 10° 08:13:47 10° 121° (ESE) 2,573 - -48.5°
Exits shadow 08:16:19 - 128° (SE) 3,463 11.2 -48.0°
Sets 08:16:24 0° 129° (SE) 3,493 11.2 -48.0°
